TimeEST,TemperatureF,Dew PointF,Humidity,Sea Level PressureIn,VisibilityMPH,Wind Direction,Wind SpeedMPH,Gust SpeedMPH,PrecipitationIn,Events,Conditions,WindDirDegrees,DateUTC
12:53 AM,30.0,19.9,66,30.35,10.0,ENE,8.1,-,N/A,,Overcast,60,2013-03-07 05:53:00
1:53 AM,30.0,19.9,66,30.35,10.0,ENE,8.1,-,N/A,,Overcast,60,2013-03-07 06:53:00
2:53 AM,30.0,19.9,66,30.35,10.0,ENE,10.4,18.4,N/A,,Overcast,60,2013-03-07 07:53:00
3:24 AM,30.2,19.4,64,30.30,10.0,NE,9.2,-,N/A,,Overcast,50,2013-03-07 08:24:00
3:53 AM,30.0,19.9,66,30.33,10.0,ENE,10.4,-,N/A,,Overcast,70,2013-03-07 08:53:00
4:53 AM,30.0,19.9,66,30.32,10.0,NE,11.5,18.4,N/A,,Overcast,50,2013-03-07 09:53:00
5:53 AM,30.0,19.9,66,30.33,10.0,ENE,8.1,-,N/A,,Overcast,60,2013-03-07 10:53:00
6:06 AM,30.2,19.4,64,30.30,10.0,ENE,13.8,-,N/A,,Overcast,60,2013-03-07 11:06:00
6:53 AM,30.0,19.9,66,30.34,10.0,ENE,9.2,-,N/A,,Overcast,60,2013-03-07 11:53:00
7:03 AM,30.2,19.4,64,30.31,10.0,ENE,11.5,-,N/A,,Overcast,70,2013-03-07 12:03:00
7:53 AM,30.0,19.9,66,30.35,10.0,ENE,11.5,19.6,N/A,,Overcast,60,2013-03-07 12:53:00
8:53 AM,30.0,19.9,66,30.34,10.0,ENE,12.7,-,N/A,,Overcast,70,2013-03-07 13:53:00
9:53 AM,30.0,19.9,66,30.34,10.0,ENE,16.1,21.9,N/A,,Overcast,60,2013-03-07 14:53:00
10:53 AM,30.0,19.9,66,30.32,10.0,NE,16.1,23.0,N/A,,Overcast,50,2013-03-07 15:53:00
11:53 AM,32.0,19.9,61,30.32,10.0,NE,15.0,20.7,N/A,,Overcast,50,2013-03-07 16:53:00
12:37 PM,32.0,21.2,64,30.27,10.0,ENE,13.8,19.6,N/A,,Overcast,70,2013-03-07 17:37:00
12:53 PM,32.0,21.0,64,30.29,10.0,NE,9.2,24.2,N/A,,Overcast,50,2013-03-07 17:53:00
1:53 PM,34.0,21.0,59,30.28,10.0,NE,15.0,21.9,N/A,,Overcast,40,2013-03-07 18:53:00
2:53 PM,34.0,21.0,59,30.27,10.0,NNE,13.8,19.6,N/A,,Overcast,30,2013-03-07 19:53:00
3:53 PM,33.1,21.9,64,30.27,10.0,NE,15.0,24.2,N/A,,Overcast,40,2013-03-07 20:53:00
4:04 PM,33.8,21.2,60,30.23,10.0,NNE,13.8,19.6,N/A,,Overcast,30,2013-03-07 21:04:00
4:53 PM,33.1,21.9,64,30.28,10.0,NE,12.7,21.9,N/A,,Overcast,40,2013-03-07 21:53:00
5:53 PM,32.0,21.9,66,30.29,10.0,NE,12.7,18.4,N/A,,Overcast,40,2013-03-07 22:53:00
6:53 PM,32.0,21.9,66,30.29,10.0,NE,11.5,17.3,N/A,,Overcast,40,2013-03-07 23:53:00
7:53 PM,30.9,21.9,69,30.28,10.0,NE,10.4,16.1,N/A,,Overcast,50,2013-03-08 00:53:00
8:53 PM,30.9,21.9,69,30.27,10.0,ENE,13.8,20.7,N/A,,Overcast,60,2013-03-08 01:53:00
9:53 PM,30.0,21.9,72,30.27,10.0,ENE,13.8,24.2,N/A,,Overcast,60,2013-03-08 02:53:00
10:53 PM,30.0,21.0,69,30.26,10.0,NE,11.5,19.6,N/A,,Overcast,50,2013-03-08 03:53:00
11:53 PM,28.9,19.9,69,30.25,10.0,NE,10.4,25.3,N/A,,Overcast,40,2013-03-08 04:53:00